Tracking 19795 objects as of 19-Jul-2019
HD Live streaming from Space Station
objects crossing your sky now

COSMOS 826

Track COSMOS 826 now!
10-day predictions
COSMOS 826 is classified as:


NORAD ID: 8890
Int'l Code: 1976-054B
Perigee: 1,488.6 km
Apogee: 1,551.5 km
Inclination: 74.0 °
Period: 116.3 minutes
Semi major axis: 7891 km
RCS: 0.6963 m2 (medium)
Launch date: June 15, 1976
Source: Commonwealth of Independent States (former USSR) (CIS)
Launch site: PLESETSK MISSILE AND SPACE COMPLEX (PKMTR)
aabbcc
Your satellite tracking list
Your tracking list is empty




NASA's NSSDC Master Catalog

Two Line Element Set (TLE):
1  8890U 76054B   19198.80185073 -.00000025 +00000-0 -70835-4 0  9993
2  8890 074.0009 131.3913 0039811 185.2576 268.2671 12.38516843948075
Source of the keplerian elements: AFSPC